Theta_e
346 346 347 351 349 350 349 350 345 344 345 347 347 345 345 345 349 345 345 340 336 337 336 337 336 335 334 332 334 335 336 333 327 331 334 335 331 336 334 332 338 334 337
345 346 347 347 350 350 345 347 346 347 347 347 350 347 347 349 345 341 343 341 339 338 336 337 336 337 336 336 336 336 335 334 332 327 329 335 334 331 335 334 332 335 336
345 345 345 351 350 349 344 348 344 344 350 350 351 352 346 348 345 343 342 341 341 340 339 340 340 337 337 336 336 337 336 335 334 334 327 331 331 335 332 332 333 335 335
346 348 350 352 350 350 347 348 347 347 343 345 346 345 347 345 344 341 342 343 342 342 342 342 340 337 337 338 339 338 339 336 335 334 333 331 331 330 330 333 336 337 335
346 346 355 353 344 350 348 348 348 348 349 347 347 347 347 346 347 345 345 345 346 344 343 343 342 341 340 338 338 339 339 337 337 336 335 334 335 332 329 330 333 334 335
347 349 353 350 348 350 349 349 348 346 350 347 349 348 347 348 348 346 341 344 344 345 345 344 344 344 344 342 341 340 342 340 339 338 337 336 335 336 336 335 333 331 331
347 346 353 347 349 351 350 346 346 349 350 346 346 347 346 348 348 346 345 345 346 346 345 345 343 344 342 343 342 341 342 343 343 343 343 343 338 336 335 336 336 336 335
348 348 346 349 350 352 347 343 344 347 348 348 348 348 347 346 344 345 344 343 344 345 345 344 344 343 342 341 343 342 341 338 335 339 342 342 342 339 338 338 338 338 338
348 347 345 348 348 350 350 341 343 348 347 348 348 348 345 345 345 344 343 342 341 340 340 338 334 333 335 334 334 332 330 325 321 321 325 334 339 341 341 340 339 339 339
348 348 346 345 345 350 350 343 340 346 345 346 348 346 348 346 348 345 344 344 341 338 337 334 329 324 314 319 316 316 313 312 312 314 316 317 319 323 325 327 330 331 332
348 346 347 346 346 347 342 338 334 337 344 343 344 346 347 346 347 345 345 344 343 340 339 336 332 324 313 318 312 310 310 311 312 314 316 318 321 325 325 319 314 311 311
356 349 347 346 346 347 338 338 334 333 340 343 343 343 344 345 345 344 345 344 343 342 341 337 334 327 323 316 312 310 310 310 310 310 310 310 310 310 310 310 310 317 341
353 356 347 346 351 347 346 337 335 338 334 338 337 341 340 342 344 345 344 345 344 343 343 340 335 330 325 324 315 313 312 313 313 314 313 312 312 312 312 311 310 319 343
352 354 347 348 347 347 346 343 340 337 334 329 321 331 338 338 343 344 343 346 343 342 342 341 336 333 328 326 321 315 316 316 316 316 315 315 315 314 314 313 312 312 337
353 349 347 346 347 347 346 345 342 335 333 334 327 317 326 336 339 341 342 344 341 340 340 341 336 334 331 326 324 326 322 318 317 316 316 316 315 315 315 314 313 311 310
348 350 350 348 348 349 345 345 348 341 334 335 337 318 322 334 336 337 340 341 342 341 339 339 337 335 332 328 323 327 327 319 319 319 318 317 317 316 315 315 314 313 312
344 346 349 350 348 348 349 345 346 346 340 337 338 327 317 320 333 332 333 335 339 341 339 339 337 335 333 327 326 326 327 323 323 320 320 318 317 316 315 315 314 314 314
344 344 345 348 349 347 349 349 347 350 344 341 339 338 331 320 319 322 330 331 333 338 340 339 337 335 333 326 321 321 328 328 326 321 320 319 317 317 317 315 314 313 312
347 347 346 345 347 348 347 348 349 347 347 345 343 341 339 336 322 327 324 330 333 337 340 340 337 336 333 330 320 324 323 326 325 319 320 319 316 317 316 314 312 309 308
347 347 348 348 347 347 348 349 349 350 348 348 346 341 343 341 337 323 319 317 331 335 338 339 337 336 334 330 327 327 325 325 323 320 319 319 316 316 314 311 308 307 307
348 348 348 349 350 350 353 351 351 350 350 347 338 338 335 343 341 327 324 322 326 326 332 334 335 334 332 330 327 326 324 324 325 321 320 318 319 317 313 312 310 308 307
349 350 351 351 350 353 356 351 352 351 350 346 338 336 335 343 342 334 321 319 319 316 329 329 330 331 330 329 326 324 322 323 322 321 321 320 317 315 315 315 309 307 306
357 358 359 355 354 354 353 352 351 351 350 339 338 338 339 341 341 340 326 317 314 316 323 330 331 330 329 325 324 320 321 323 322 323 315 321 316 316 315 315 311 309 306
357 360 360 357 356 356 355 353 351 348 342 335 340 337 338 337 339 342 332 321 314 318 321 324 329 329 327 320 315 312 316 323 323 318 317 318 316 318 317 317 314 312 309
351 348 351 355 360 360 358 353 352 350 349 347 345 337 338 334 340 342 336 325 315 319 323 324 329 328 325 320 315 321 320 320 317 318 312 318 318 319 317 318 317 314 313
353 351 352 352 351 353 355 355 354 353 351 349 345 342 341 336 341 343 340 327 319 325 327 322 324 323 322 322 316 316 319 319 320 319 318 319 319 318 319 318 318 316 316
Wind_Speed
2 3 2 4 4 4 3 2 2 3 4 9 8 8 9 7 8 7 5 7 9 8 7 6 7 6 6 6 6 6 6 5 7 8 9 8 9 9 8 10 9 8 9
3 3 3 4 2 2 3 3 2 3 3 3 5 7 8 8 10 10 8 8 10 10 10 9 9 8 7 7 7 7 6 7 7 9 10 10 10 10 10 10 10 10 10
2 4 2 3 2 0 2 1 5 2 2 5 6 9 7 9 9 8 10 9 8 10 14 14 11 14 9 8 8 8 9 9 9 10 11 12 11 11 11 12 12 12 13
2 1 3 1 2 2 1 2 2 1 3 2 5 8 6 8 10 11 12 11 9 7 8 10 10 14 12 11 11 8 10 12 12 12 11 12 13 13 13 14 14 14 15
2 1 1 1 3 1 1 2 2 1 1 1 5 6 5 6 7 10 9 10 10 7 8 8 9 12 13 13 11 10 8 12 12 12 13 13 13 13 14 15 16 16 17
2 1 1 1 2 2 0 1 1 1 1 4 7 7 8 9 9 10 6 7 8 9 9 8 8 6 10 10 9 14 10 10 13 14 15 15 15 16 16 16 17 18 20
2 3 2 3 3 1 3 2 2 4 6 12 14 16 16 15 13 12 10 7 6 6 7 7 7 6 7 6 6 9 7 8 10 11 12 18 19 16 17 18 19 21 22
3 2 4 3 5 4 3 3 6 6 5 5 6 11 10 13 11 10 9 9 8 8 7 7 8 7 6 5 5 7 8 7 7 7 8 10 15 18 20 21 23 25 26
5 4 5 4 5 4 3 2 7 8 4 5 7 2 5 6 11 7 7 7 9 8 9 9 7 6 7 5 2 6 8 8 9 9 10 10 12 15 18 20 22 24 26
7 5 5 4 3 4 5 3 7 8 8 5 6 3 2 8 4 6 7 8 8 8 8 7 5 2 3 2 6 7 5 5 5 6 6 7 8 10 12 14 17 20 24
8 7 5 4 3 3 5 5 6 9 7 7 7 7 4 5 3 4 11 8 7 6 6 6 5 4 4 5 2 2 2 2 2 2 3 4 6 8 10 13 16 19 22
8 9 7 6 6 5 5 5 5 7 9 10 9 9 9 8 7 6 7 11 9 9 7 6 5 5 5 4 4 4 5 4 4 2 2 1 1 2 4 7 11 14 14
8 10 9 8 7 6 6 7 6 8 9 8 11 9 10 10 8 9 8 9 10 9 8 8 7 6 6 6 4 5 6 6 6 6 6 5 5 6 8 11 15 17 13
8 10 8 8 8 8 7 6 6 5 7 7 10 13 9 10 10 10 10 10 9 9 10 8 10 8 7 6 5 4 5 4 4 4 5 5 7 9 11 13 16 19 17
10 12 9 9 9 8 8 7 6 7 8 7 7 9 10 8 9 10 11 11 11 11 13 12 8 11 9 9 7 6 6 4 2 2 3 5 6 8 11 13 14 16 18
14 14 12 11 11 9 9 9 8 7 8 8 6 7 9 7 8 8 9 12 13 12 10 10 11 12 11 9 9 10 9 6 3 0 2 3 5 7 9 10 13 14 15
18 18 16 15 13 12 11 11 10 11 8 10 9 8 8 12 8 9 9 11 13 13 12 8 12 13 12 10 10 10 9 7 7 4 1 2 4 5 7 9 11 13 14
21 20 20 19 18 16 15 14 13 11 10 10 10 10 9 10 13 15 11 12 12 14 13 13 13 12 12 11 12 11 9 6 7 7 4 3 3 3 6 9 11 13 13
21 22 22 23 22 21 19 17 15 15 14 12 11 11 12 13 14 12 13 10 11 12 16 12 12 12 12 12 12 12 11 10 7 7 6 6 3 3 6 8 10 10 10
23 24 25 25 27 26 25 23 20 19 17 17 10 12 17 17 17 16 17 15 12 13 14 15 14 15 14 14 11 10 10 9 9 7 7 8 5 5 6 7 5 6 8
22 23 25 27 27 28 26 26 25 24 22 16 12 18 20 23 19 19 15 16 16 15 15 16 17 16 16 16 17 13 11 11 12 9 6 4 3 2 3 6 7 8 8
25 26 26 27 28 27 26 29 27 26 23 21 18 22 24 23 19 20 18 20 18 18 19 17 18 19 19 17 16 15 14 13 10 10 10 7 6 4 4 1 8 9 10
18 21 23 24 26 27 29 30 29 29 18 10 17 24 22 23 21 21 20 18 19 18 19 18 17 17 19 18 19 18 17 15 11 9 10 9 6 6 4 8 8 9 10
12 15 18 21 24 26 27 26 25 23 18 14 24 25 20 20 25 24 22 20 21 20 20 17 16 17 17 19 16 16 17 15 12 10 12 9 7 6 5 5 6 9 10
11 12 13 16 20 22 26 26 29 28 31 28 22 31 27 27 28 24 22 21 21 21 22 22 19 20 20 15 14 15 16 14 11 11 13 9 8 6 6 6 7 8 12
12 13 13 13 15 16 18 19 20 20 24 27 22 32 31 37 36 27 26 24 23 24 22 27 23 22 20 17 15 14 14 14 13 11 12 10 9 6 6 8 6 4 7
Wind_Direction
44 42 98 84 54 82 98 61 3 174 189 178 185 194 196 201 197 196 203 190 193 193 181 186 205 206 208 213 209 204 195 208 210 209 209 217 219 218 219 223 218 217 220
11 44 61 66 91 151 140 131 167 137 148 152 169 190 186 198 215 202 199 203 209 215 220 222 227 215 218 223 223 223 220 213 218 222 217 217 219 220 221 224 232 229 232
32 65 116 112 144 165 24 114 86 60 140 191 197 206 206 198 202 205 210 224 221 220 225 223 233 222 220 220 222 228 228 224 226 224 221 225 231 231 232 230 232 237 238
358 31 47 144 166 130 108 103 113 115 38 208 219 212 195 213 215 222 237 224 231 224 189 205 201 204 219 222 227 240 246 229 229 231 233 232 237 237 235 240 245 248 248
4 24 42 298 196 174 175 170 54 330 340 210 139 148 160 204 217 205 217 209 199 203 183 179 193 208 215 224 231 237 250 231 236 236 238 239 243 244 243 244 247 248 249
259 251 269 220 192 188 266 210 141 121 83 134 116 108 107 120 134 146 146 149 185 196 184 178 179 194 206 216 233 228 235 228 243 246 244 241 240 243 247 250 251 251 253
284 249 221 249 196 184 202 295 28 130 112 110 100 96 89 85 93 98 91 89 111 160 177 184 201 202 193 225 219 216 232 233 241 246 250 244 242 244 247 251 254 255 254
321 253 246 249 217 241 269 294 158 153 145 144 115 113 102 96 102 103 98 91 100 98 102 128 136 140 136 169 203 215 238 254 260 260 250 240 239 246 253 257 259 259 259
289 270 260 233 251 212 262 279 177 175 179 186 174 206 159 127 128 113 104 109 109 117 116 110 123 150 174 194 212 247 248 257 259 258 257 253 250 252 256 265 268 268 266
263 259 244 235 217 198 225 240 197 191 175 199 204 190 147 152 169 147 138 133 124 123 129 124 112 111 169 206 224 230 240 248 254 257 262 268 271 273 276 277 279 278 277
244 251 255 262 261 206 227 222 211 204 217 201 221 223 212 199 226 172 160 164 154 153 148 136 117 101 111 114 128 171 187 195 222 244 258 267 272 278 290 296 297 295 294
253 247 255 252 253 240 231 218 221 233 220 226 222 226 225 216 221 204 179 177 182 181 179 167 147 134 121 125 116 109 114 116 113 110 99 54 15 4 350 339 332 326 319
254 253 251 252 252 262 258 236 233 245 249 244 240 234 231 231 238 223 215 189 192 189 189 201 186 168 153 136 132 113 105 105 94 83 74 71 54 35 23 16 11 7 359
253 249 256 247 259 261 261 261 246 245 260 254 257 236 234 238 232 224 225 195 196 200 202 201 199 191 184 165 185 147 138 123 101 85 59 38 28 21 21 25 27 25 23
246 258 259 255 265 266 259 257 240 251 258 265 273 251 231 240 232 229 227 224 219 207 212 217 202 198 193 197 197 153 185 165 127 70 39 24 17 15 15 18 24 32 34
251 250 260 261 262 269 260 255 242 248 252 259 274 263 233 237 238 235 231 231 231 239 235 209 197 203 192 194 207 192 202 206 208 191 18 5 5 9 10 13 16 19 26
252 255 260 261 262 261 264 254 241 241 256 253 256 265 247 243 236 245 244 237 235 231 234 181 199 199 207 194 218 201 220 210 236 229 260 336 353 355 359 3 5 5 5
253 254 256 256 257 258 257 261 255 239 254 257 258 263 261 254 251 248 244 236 230 226 216 204 198 209 205 208 212 203 205 209 212 253 247 277 313 325 343 349 346 344 343
255 256 254 255 255 256 256 256 254 250 254 256 257 263 263 256 251 237 248 237 231 222 209 214 211 200 199 194 200 196 190 194 195 236 244 260 276 302 326 332 332 335 339
256 257 258 257 256 253 253 250 249 246 246 246 270 305 279 259 254 246 246 242 221 216 211 209 213 202 199 202 191 200 201 196 196 189 193 233 277 292 313 328 337 345 350
256 257 261 260 257 254 246 244 239 243 243 242 248 290 293 250 248 246 232 239 226 221 219 208 212 209 200 200 197 202 200 198 205 196 200 226 259 336 338 359 351 343 335
255 259 258 256 254 251 246 249 239 235 240 229 273 293 273 249 242 245 237 229 237 231 217 213 215 213 204 202 198 201 196 200 204 209 200 222 212 206 200 227 329 341 350
266 260 258 255 253 253 253 254 247 240 224 275 290 294 269 234 243 243 242 235 233 224 216 218 209 212 210 197 200 194 194 201 200 212 197 218 214 207 214 279 331 354 354
285 275 266 263 261 258 259 260 251 239 272 300 259 255 238 226 240 235 236 233 228 218 205 205 212 204 212 207 214 200 204 190 201 197 195 204 213 203 210 230 302 7 5
293 293 288 276 266 267 266 264 266 260 253 264 252 236 234 226 236 235 237 237 226 215 213 196 197 200 201 209 214 192 188 183 195 202 195 198 213 204 207 221 278 324 2
298 291 282 285 287 283 280 280 278 269 253 252 242 230 231 234 232 228 230 228 219 213 206 206 202 201 203 206 215 196 195 193 195 197 207 189 202 193 228 224 249 283 342